NOAA 16 DEB

Satellite information

Favourite Embed

Satellite Type and Status

DEBRISIN ORBIT

Key statistics

Satellite NOAA 16 DEB at a glance.

Uptime

9215

Days in orbit

Revolutions

≈ 14.3

Per day

Orbit

SSO

Sun Synchronous Orbit

Inclination

98.8

Latest

Satellite identification and parameters

Extended collection of information and parameters for NOAA 16 DEB.

Object identification

Identified? True

Debris? True

Object name: NOAA 16 DEB

International designator: 2000-055J

Object number (NORAD): 41051

Object ID (CCSDS): 41051

Country: UNITED STATES OF AMERICA (US)

Current information (Y/N): Y

RCS size: SMALL

Orbital parameters

Period: 100.471 minutes

Inclination: 98.7807 deg

SMA: 7159.023 km

Apoapsis: 791.394 km

Periapsis: 770.382 km

RAAN: 87.5879 deg

Eccentricy: 0.00146751

Argument of periapsis: 109.0328 deg

Mean anomaly: 251.2447 deg

Mean motion: 14.33250567 rev/day

Mean motion (dot): 0.00008087 rev/day2

B* drag term: 0.0029499304 1/REarth

Two-line elements (TLE)

Creation date: Dec. 11, 2025, 10:54 a.m.

Reference frame: TEME

Reference center: EARTH

Epoch: Dec. 11, 2025, 5:16 a.m. UTC

TLE line 0: 0 NOAA 16 DEB

TLE line 1: 1 41051U 00055J 25345.21945872 .00008087 00000-0 29499-2 0 9996

TLE line 2: 2 41051 98.7807 87.5879 0014675 109.0328 251.2447 14.33250567520066

Live tracking on map

Real-time ground track for satellite NOAA 16 DEB.

In-orbit conjunctions

A list of the most updated potential collisions computed for object NOAA 16 DEB.

Target Orbit TCA Probability of collision Miss distance Type
CZ-6A DEB LEO 2025-08-09 11:59:44 0.0002757605 310.0 (m) DEBRIS
COSMOS 1371 LEO 2025-07-13 22:56:46 0.0008962312 197.0 (m) PAYLOAD
COSMOS 1867 LEO 2025-01-24 18:09:55 0.0008732706 51.0 (m) PAYLOAD
FENGYUN 1C DEB SSO 2024-11-11 08:31:54 0.0006479013 728.0 (m) DEBRIS

Associated space launch

The NOAA K, L and M POES satellites begin the fifth generation of improved environmental monitoring in support of NOAA missions. The instrument payload has significant improvements and additions/deletions. The instrument changes have effected the spacecraft subsystems and data formats.

NOAA 16 DEB was lifted into orbit during the mission ‘Titan II SLV | NOAA 16’, on board a Titan II SLV space rocket.

The launch took place on Sept. 21, 2000, 10:22 a.m. from Space Launch Complex 4W.

For more information about the launch, click the button.

Launch to space Titan II SLV | NOAA 16
Titan II SLV | NOAA 16

Agency: N/A

Status: Launch Successful

Launch date: Sept. 21, 2000, 10:22 a.m. UTC

Rocket: Titan II SLV

Launch pad: Space Launch Complex 4W

Location: Vandenberg SFB, CA, USA

...

Latest news about this satellite

There are no fresh news available about this satellite. Check back as we update our databases every day.


Newsletter sign-up

Weekly statistics, charts and insights to help you stay on top of the space industry.